TimeCST,TemperatureF,Dew PointF,Humidity,Sea Level PressureIn,VisibilityMPH,Wind Direction,Wind SpeedMPH,Gust SpeedMPH,PrecipitationIn,Events,Conditions,WindDirDegrees,DateUTC
12:15 AM,21.2,10.4,63,30.32,10.0,NNE,4.6,-,N/A,,Clear,30,2013-01-15 06:15:00
12:35 AM,21.2,10.4,63,30.33,10.0,North,4.6,-,N/A,,Clear,10,2013-01-15 06:35:00
12:55 AM,21.2,8.6,58,30.32,10.0,NNE,4.6,-,N/A,,Clear,20,2013-01-15 06:55:00
1:15 AM,21.2,10.4,63,30.32,10.0,NNE,4.6,-,N/A,,Clear,20,2013-01-15 07:15:00
1:55 AM,21.2,10.4,63,30.32,10.0,Calm,Calm,-,N/A,,Clear,0,2013-01-15 07:55:00
2:15 AM,21.2,10.4,63,30.31,10.0,NNE,4.6,-,N/A,,Clear,20,2013-01-15 08:15:00
2:35 AM,21.2,10.4,63,30.32,10.0,North,5.8,-,N/A,,Clear,10,2013-01-15 08:35:00
2:56 AM,21.2,10.4,63,30.31,10.0,NNE,6.9,-,N/A,,Clear,30,2013-01-15 08:56:00
3:15 AM,21.2,10.4,63,30.30,10.0,NNE,6.9,-,N/A,,Clear,30,2013-01-15 09:15:00
3:35 AM,21.2,10.4,63,30.29,10.0,NNE,6.9,-,N/A,,Clear,30,2013-01-15 09:35:00
4:15 AM,19.4,10.4,68,30.28,10.0,North,3.5,-,N/A,,Clear,10,2013-01-15 10:15:00
4:55 AM,19.4,10.4,68,30.28,10.0,Calm,Calm,-,N/A,,Clear,0,2013-01-15 10:55:00
5:16 AM,19.4,10.4,68,30.28,10.0,Calm,Calm,-,N/A,,Clear,0,2013-01-15 11:16:00
5:55 AM,19.4,10.4,68,30.28,10.0,Calm,Calm,-,N/A,,Clear,0,2013-01-15 11:55:00
6:55 AM,17.6,10.4,73,30.30,10.0,Calm,Calm,-,N/A,,Clear,0,2013-01-15 12:55:00
7:15 AM,17.6,10.4,73,30.29,10.0,Calm,Calm,-,N/A,,Clear,0,2013-01-15 13:15:00
7:55 AM,19.4,10.4,68,30.31,10.0,Calm,Calm,-,N/A,,Clear,0,2013-01-15 13:55:00
8:15 AM,19.4,12.2,74,30.29,10.0,North,3.5,-,N/A,,Clear,10,2013-01-15 14:15:00
8:35 AM,21.2,12.2,68,30.28,10.0,NE,3.5,-,N/A,,Clear,40,2013-01-15 14:35:00
9:15 AM,21.2,12.2,68,30.24,10.0,North,8.1,-,N/A,,Mostly Cloudy,10,2013-01-15 15:15:00
9:35 AM,23.0,12.2,63,30.29,10.0,NNW,6.9,-,N/A,,Mostly Cloudy,330,2013-01-15 15:35:00
9:56 AM,24.8,12.2,59,30.32,10.0,West,6.9,-,N/A,,Overcast,280,2013-01-15 15:56:00
10:15 AM,24.8,12.2,59,30.35,10.0,West,5.8,-,N/A,,Mostly Cloudy,270,2013-01-15 16:15:00
10:35 AM,24.8,12.2,59,30.33,10.0,West,3.5,-,N/A,,Overcast,260,2013-01-15 16:35:00
11:15 AM,23.0,15.8,74,30.30,0.2,Calm,Calm,-,N/A,,Overcast,0,2013-01-15 17:15:00
11:35 AM,21.2,17.6,86,30.29,0.5,Calm,Calm,-,N/A,,Overcast,0,2013-01-15 17:35:00
11:55 AM,21.2,15.8,80,30.27,1.0,North,3.5,-,N/A,,Overcast,10,2013-01-15 17:55:00
12:55 PM,24.8,17.6,74,30.22,3.0,NE,3.5,-,N/A,,Overcast,40,2013-01-15 18:55:00
1:16 PM,24.8,17.6,74,30.22,2.0,Calm,Calm,-,N/A,,Overcast,0,2013-01-15 19:16:00
1:35 PM,24.8,17.6,74,30.20,3.0,NE,3.5,-,N/A,,Overcast,40,2013-01-15 19:35:00
1:55 PM,24.8,17.6,74,30.20,4.0,Calm,Calm,-,N/A,,Overcast,0,2013-01-15 19:55:00
2:16 PM,26.6,17.6,69,30.18,10.0,NE,4.6,-,N/A,,Overcast,40,2013-01-15 20:16:00
2:35 PM,26.6,19.4,74,30.16,10.0,ENE,3.5,-,N/A,,Overcast,60,2013-01-15 20:35:00
2:55 PM,26.6,19.4,74,30.16,10.0,ENE,4.6,-,N/A,,Overcast,60,2013-01-15 20:55:00
3:16 PM,26.6,19.4,74,30.17,10.0,Calm,Calm,-,N/A,,Overcast,0,2013-01-15 21:16:00
3:35 PM,26.6,19.4,74,30.18,10.0,Calm,Calm,-,N/A,,Overcast,0,2013-01-15 21:35:00
3:55 PM,26.6,17.6,69,30.18,10.0,Calm,Calm,-,N/A,,Overcast,0,2013-01-15 21:55:00
4:15 PM,28.4,19.4,69,30.17,10.0,NNE,3.5,-,N/A,,Overcast,30,2013-01-15 22:15:00
4:35 PM,28.4,19.4,69,30.19,10.0,Calm,Calm,-,N/A,,Overcast,0,2013-01-15 22:35:00
4:55 PM,28.4,19.4,69,30.19,10.0,Calm,Calm,-,N/A,,Overcast,0,2013-01-15 22:55:00
5:16 PM,28.4,19.4,69,30.18,10.0,Calm,Calm,-,N/A,,Overcast,0,2013-01-15 23:16:00
5:55 PM,28.4,19.4,69,30.17,10.0,Calm,Calm,-,N/A,,Overcast,0,2013-01-15 23:55:00
6:16 PM,28.4,19.4,69,30.19,10.0,WSW,3.5,-,N/A,,Overcast,240,2013-01-16 00:16:00
6:35 PM,28.4,21.2,74,30.18,10.0,West,3.5,-,N/A,,Overcast,280,2013-01-16 00:35:00
6:55 PM,28.4,19.4,69,30.18,10.0,NW,3.5,-,N/A,,Scattered Clouds,320,2013-01-16 00:55:00
7:15 PM,28.4,19.4,69,30.18,10.0,NNW,3.5,-,N/A,,Mostly Cloudy,330,2013-01-16 01:15:00
7:35 PM,28.4,19.4,69,30.17,10.0,NW,3.5,-,N/A,,Overcast,310,2013-01-16 01:35:00
7:55 PM,28.4,17.6,64,30.17,10.0,NNW,3.5,-,N/A,,Overcast,340,2013-01-16 01:55:00
8:15 PM,28.4,17.6,64,30.18,10.0,Calm,Calm,-,N/A,,Mostly Cloudy,0,2013-01-16 02:15:00
8:36 PM,28.4,17.6,64,30.17,10.0,North,3.5,-,N/A,,Scattered Clouds,10,2013-01-16 02:36:00
8:55 PM,28.4,15.8,59,30.16,10.0,North,4.6,-,N/A,,Clear,360,2013-01-16 02:55:00
9:15 PM,28.4,15.8,59,30.14,10.0,North,5.8,-,N/A,,Clear,10,2013-01-16 03:15:00
10:15 PM,26.6,15.8,64,30.16,10.0,NNW,4.6,-,N/A,,Mostly Cloudy,330,2013-01-16 04:15:00
10:35 PM,28.4,15.8,59,30.15,10.0,NW,3.5,-,N/A,,Overcast,320,2013-01-16 04:35:00
10:55 PM,28.4,15.8,59,30.15,10.0,Calm,Calm,-,N/A,,Overcast,0,2013-01-16 04:55:00
11:35 PM,26.6,15.8,64,30.15,10.0,NNW,5.8,-,N/A,,Partly Cloudy,340,2013-01-16 05:35:00